Regional Weather Roundup
Issued by NWS

Home | Current Version | Previous Version | Text Only | Print | Product List | Glossary On
Versions: 1 2 3 4 5 6 7 8 9 10 11 12 13 14 15 16 17 18 19 20 21 22 23 24 25 26 27 28 29 30 31 32 33 34 35 36 37 38 39 40 41 42 43 44 45 46 47 48 49 50
000
ASUS43 KMKX 030800
RWRWI

WISCONSIN REGIONAL WEATHER ROUNDUP
NATIONAL WEATHER SERVICE MILWAUKEE/SULLIVAN WI
300 AM CDT TUE MAY 03 2016

NOTE: "FAIR" INDICATES FEW OR NO CLOUDS BELOW 12,000 FEET WITH NO
SIGNIFICANT WEATHER AND/OR OBSTRUCTIONS TO VISIBILITY.

WIZ001-002-006>008-014>016-023>028-030900-
NORTHWEST WISCONSIN

CITY           SKY/WX    TMP DP  RH WIND       PRES   REMARKS
SUPERIOR ARPT  CLEAR     37  33  88 SW9       29.89F WCI  30
ASHLAND        CLEAR     43  33  68 SW8       29.89F
HAYWARD        CLEAR     35  31  85 CALM      29.93F
SIREN          CLEAR     49  32  51 W5        29.94F
CUMBERLAND     CLEAR     43  32  65 W7        29.95F
RICE LAKE      CLEAR     41  38  90 CALM      29.96F
CHETEK         CLEAR     39  35  85 CALM      29.95F
LADYSMITH      CLEAR     39  36  91 CALM      29.95F
EAU CLAIRE     NOT AVBL
MENOMONIE      CLEAR     41  32  70 CALM      29.96F
NEW RICHMOND   CLEAR     45  35  68 CALM      29.96F
OSCEOLA        CLEAR     40  40 100 CALM      29.99S
$$

WIZ003>005-009-010-017-018-030900-
NORTH CENTRAL WISCONSIN

CITY           SKY/WX    TMP DP  RH WIND       PRES   REMARKS
MANITOWISH WTR FOG       32  32 100 CALM      29.90F VSB 3/4
ARBOR VITAE    CLEAR     37  33  87 CALM      29.91F
WOODRUFF       CLEAR     37  33  87 CALM      29.91F
RHINELANDER    CLEAR     36  32  85 W5        29.92F WCI  32
EAGLE RIVER    CLEAR     32  31  96 CALM      29.91S
LAND O LAKES   MOCLDY    32  31  98 CALM      29.91F
PHILLIPS       CLEAR     36  33  92 CALM      29.92F
TOMAHAWK       CLEAR     32  30  92 CALM      29.93F
MEDFORD        CLEAR     44  34  67 W3        29.93F
MERRILL        CLEAR     35  33  94 CALM      29.94F
$$

WIZ029-030-035-036-043>047-030900-
CENTRAL WISCONSIN

CITY           SKY/WX    TMP DP  RH WIND       PRES   REMARKS
WAUSAU         CLEAR     49  35  58 NW6       29.92F
MOSINEE        CLEAR     45  34  65 W5        29.95F
MARSHFIELD     CLEAR     46  34  62 W7        29.93F
STEVENS POINT  CLEAR     35  31  86 CALM      29.95F
WAUPACA        CLEAR     44  34  67 CALM      29.95F
WAUTOMA        CLEAR     37  34  89 CALM      29.96F
WISC RAPIDS    CLEAR     39  33  79 CALM      29.96F
CAMP DOUGLAS   NOT AVBL
$$

WIZ011>013-019>022-031-037>040-048>050-030900-
NORTHEAST WISCONSIN

CITY           SKY/WX    TMP DP  RH WIND       PRES   REMARKS
ANTIGO         CLEAR     40  33  78 CALM      29.93F
SHAWANO        CLEAR     47  37  67 CALM      29.93F
OCONTO         CLEAR     37  37 100 CALM      29.92F
STURGEON BAY   CLEAR     45  30  57 S7        29.94F
GREEN BAY      CLEAR     43  37  79 CALM      29.93F
MANITOWOC      NOT AVBL
APPLETON       CLEAR     45  34  65 SW8       29.93F
CLINTONVILLE   CLEAR     45  34  65 SW5       29.93F
OSHKOSH        CLEAR     46  35  65 S9        29.94F
$$

WIZ032>034-041-042-053>061-030900-
SOUTHWEST WISCONSIN

CITY           SKY/WX    TMP DP  RH WIND       PRES   REMARKS
LA CROSSE      CLEAR     48  41  76 S8        29.97F
SPARTA         CLEAR     36  35  95 CALM      29.98F
VIROQUA        CLEAR     47  37  67 W7        29.98F
BOSCOBEL       PTCLDY    41  39  93 SW5       29.99F
PRAIRIE DU CHI CLEAR     46  38  72 N5        30.00S
PLATTEVILLE    CLEAR     46  40  78 W6        29.99F
$$

WIZ056-057-062-063-064-067-068-030900-
SOUTH CENTRAL WISCONSIN

CITY           SKY/WX    TMP DP  RH WIND       PRES   REMARKS
REEDSBURG      PTCLDY    40  39  98 CALM      29.97F
BARABOO/DELLS  PTCLDY    40  36  86 CALM      29.97S
LONE ROCK      NOT AVBL
MINERAL POINT  CLEAR     46  37  71 W5        29.98F
MADISON        CLEAR     44  36  73 S3        29.97F
MIDDLETON      CLEAR     38  37  93 CALM      29.98F
WATERTOWN      PTCLDY    37  36  96 CALM      29.97F
MONROE         CLEAR     45  36  70 SW7       29.98F
JANESVILLE     CLEAR     41  37  87 CALM      29.98F
$$

WIZ051-052-058>065-066-070>072-030900-
SOUTHEAST WISCONSIN

CITY           SKY/WX    TMP DP  RH WIND       PRES   REMARKS
MILWAUKEE      CLEAR     40  32  73 CALM      29.97F
WAUKESHA       CLEAR     36  32  87 CALM      29.99F
MILWAUKEE/TIMM PTCLDY    41  32  70 CALM      29.98F
RACINE         CLEAR     43  32  65 W7        29.99F
BURLINGTON     CLEAR     33  33  98 CALM      29.98F
KENOSHA        CLEAR     38  33  82 W3        29.98F
FOND DU LAC    CLEAR     46  35  65 SW9       29.95F
SHEBOYGAN      CLEAR     41  33  73 SW5       29.96F
WEST BEND      CLEAR     37  34  87 CALM      29.97F
JUNEAU         CLEAR     41  33  71 S5        29.98F
$$

LSZ147-162-030900-
LAKE SUPERIOR

STATION/POSITION TIME  TEMP    WIND        PRES    WAVE
                       AIR SEA DIR/SP/G            HT/PER
                 (UTC) (F)     (DEG/KT/KT) (MB)    (FT/S)
W MID LAKE BUOY  0650   39 37  270/  4/  6 1012.4F   0
DEVILS ISLAND    0700   41     230/ 11/ 13 1012.5F
SAXON HARBOR     0700   37     200/  3/  5 1011.9F
$$

LMZ867-665-643>646-030900-
LAKE MICHIGAN

STATION/POSITION TIME  TEMP    WIND        PRES    WAVE
                       AIR SEA DIR/SP/G            HT/PER
                 (UTC) (F)     (DEG/KT/KT) (MB)    (FT/S)
CHAMBERS ISLAND  0700   47     170/  3/  6 1013.5F
N MID LAKE BUOY  0650   41 38  200/  2/  2 1013.9F
NORTHPORT PIER   0700   46     220/  2/  6 1013.2F
ALGOMA LAKESHORE 0715             CALM       N/A
KEWAUNEE LAKESHO 0700   42      CALM  /  2 1013.5F
SHEBOYGAN LAKESH 0700   47     250/  8/  9 1015.4F
PORT WASHINGTON  0740   46     280/  5/  6 1015.6F
S MID LAKE BUOY  0650   42 41  280/  2/  4 1015.3F   1
KENOSHA   LAKESH 0700   46     270/  9/ 10 1015.2F
$$

TC  - TEMPERATURE IN CELSIUS
VSB - VISIBILITY IN STATUTE MILES
WCI - WIND CHILL INDEX
HX  - HEAT INDEX





USA.gov is the U.S. government's official web portal to all federal, state and local government web resources and services.